DW4965 Weather Reports


Display with metric or nautical units.
time (UTC)temp
F
wind
direction
speed
MPH
gust
MPH
rain 1hr
in
rain 24hr
in
rain mn
in
humidity
%
barometer
mb
20210515174657 73 97 3.0 10.0 0.00 0.00 0.00 19 1021.4
20210515174054 74 194 4.0 10.0 0.00 0.00 0.00 19 1021.5
20210515173550 73 283 3.0 6.0 0.00 0.00 0.00 20 1021.5
20210515173137 72 121 3.0 5.0 0.00 0.00 0.00 20 1021.6
20210515172553 73 90 2.0 7.0 0.00 0.00 0.00 19 1021.7
20210515172053 73 124 2.0 8.0 0.00 0.00 0.00 17 1021.9
20210515171648 73 221 3.0 8.0 0.00 0.00 0.00 18 1021.9
20210515171100 73 278 4.0 8.0 0.00 0.00 0.00 20 1022.0
20210515170552 73 221 3.0 8.0 0.00 0.00 0.00 18 1022.0
20210515170205 73 229 1.0 5.0 0.00 0.00 0.00 19 1022.0
20210515165554 73 290 2.0 10.0 0.00 0.00 0.00 17 1022.1
20210515165053 73 246 4.0 10.0 0.00 0.00 0.00 21 1022.2
20210515164645 73 240 3.0 8.0 0.00 0.00 0.00 19 1022.1
20210515164103 73 238 4.0 8.0 0.00 0.00 0.00 19 1022.1
20210515163553 72 186 3.0 8.0 0.00 0.00 0.00 17 1022.2
20210515163132 72 120 2.0 6.0 0.00 0.00 0.00 17 1022.2
20210515162552 72 307 2.0 7.0 0.00 0.00 0.00 16 1022.3
20210515162054 72 153 3.0 8.0 0.00 0.00 0.00 18 1022.3
20210515161658 72 264 4.0 8.0 0.00 0.00 0.00 19 1022.5
20210515161131 72 186 3.0 7.0 0.00 0.00 0.00 16 1022.4
20210515160556 71 252 3.0 7.0 0.00 0.00 0.00 17 1022.5
20210515160159 71 283 4.0 8.0 0.00 0.00 0.00 16 1022.6
20210515155553 71 225 2.0 10.0 0.00 0.00 0.00 20 1022.5
20210515155056 71 252 3.0 10.0 0.00 0.00 0.00 20 1022.6
20210515154753 71 231 3.0 8.0 0.00 0.00 0.00 22 1022.7
20210515154054 71 238 2.0 8.0 0.00 0.00 0.00 22 1022.7
20210515153554 70 224 3.0 8.0 0.00 0.00 0.00 24 1022.8
20210515153127 71 263 4.0 6.0 0.00 0.00 0.00 23 1022.8
20210515152553 71 249 3.0 8.0 0.00 0.00 0.00 23 1022.8
20210515152053 70 210 3.0 8.0 0.00 0.00 0.00 21 1022.8
20210515151723 70 231 3.0 7.0 0.00 0.00 0.00 24 1022.9
20210515151106 70 226 2.0 6.0 0.00 0.00 0.00 26 1022.8
20210515150557 69 250 3.0 8.0 0.00 0.00 0.00 27 1022.9
20210515150154 69 198 4.0 8.0 0.00 0.00 0.00 27 1022.9
20210515145611 69 200 3.0 6.0 0.00 0.00 0.00 29 1023.0
20210515145053 69 131 2.0 6.0 0.00 0.00 0.00 30 1023.0
20210515144656 69 269 1.0 8.0 0.00 0.00 0.00 32 1023.1
20210515144110 68 211 4.0 8.0 0.00 0.00 0.00 27 1023.0
20210515143606 68 300 2.0 8.0 0.00 0.00 0.00 31 1023.1
20210515143153 68 242 4.0 8.0 0.00 0.00 0.00 32 1023.1
20210515142551 67 262 2.0 5.0 0.00 0.00 0.00 35 1023.1
20210515142052 67 308 2.0 5.0 0.00 0.00 0.00 33 1023.1
20210515141604 67 201 2.0 5.0 0.00 0.00 0.00 32 1023.1
20210515141051 67 226 1.0 4.0 0.00 0.00 0.00 34 1023.2
20210515140554 66 0 1.0 4.0 0.00 0.00 0.00 32 1023.2
20210515140129 66 224 1.0 5.0 0.00 0.00 0.00 32 1023.2
20210515135551 65 264 1.0 5.0 0.00 0.00 0.00 31 1023.2
20210515135054 65 252 1.0 4.0 0.00 0.00 0.00 30 1023.2
20210515134651 65 260 2.0 5.0 0.00 0.00 0.00 31 1023.3
20210515134103 65 284 2.0 5.0 0.00 0.00 0.00 29 1023.3
20210515133554 65 157 1.0 5.0 0.00 0.00 0.00 34 1023.3
20210515133159 64 236 3.0 5.0 0.00 0.00 0.00 35 1023.4
20210515132552 63 210 1.0 4.0 0.00 0.00 0.00 36 1023.5
20210515132102 63 260 1.0 6.0 0.00 0.00 0.00 36 1023.5
20210515131621 62 236 2.0 6.0 0.00 0.00 0.00 41 1023.6
20210515131051 62 245 2.0 4.0 0.00 0.00 0.00 41 1023.7
20210515130550 62 255 2.0 4.0 0.00 0.00 0.00 44 1023.7
20210515130153 62 251 1.0 4.0 0.00 0.00 0.00 42 1023.7
20210515125559 62 226 1.0 2.0 0.00 0.00 0.00 46 1023.7
20210515125056 62 215 0.0 1.0 0.00 0.00 0.00 49 1023.7
20210515124708 61 236 0.0 1.0 0.00 0.00 0.00 52 1023.7
20210515124054 61 109 0.0 1.0 0.00 0.00 0.00 52 1023.7
20210515123549 60 150 0.0 1.0 0.00 0.00 0.00 55 1023.7
20210515123212 59 0 0.0 1.0 0.00 0.00 0.00 56 1023.8
20210515122550 58 0 0.0 1.0 0.00 0.00 0.00 59 1023.8
20210515122059 57 152 0.0 2.0 0.00 0.00 0.00 59 1023.8
20210515121646 56 108 0.0 2.0 0.00 0.00 0.00 63 1023.7
20210515121050 55 0 0.0 2.0 0.00 0.00 0.00 64 1023.7
20210515120552 54 160 0.0 2.0 0.00 0.00 0.00 63 1023.8
20210515120156 53 116 0.0 2.0 0.00 0.00 0.00 66 1023.8
20210515115553 53 233 1.0 2.0 0.00 0.00 0.00 65 1023.8
20210515115052 53 0 0.0 1.0 0.00 0.00 0.00 65 1023.8
20210515114604 53 0 0.0 1.0 0.00 0.00 0.00 66 1023.8
20210515114058 52 0 0.0 1.0 0.00 0.00 0.00 67 1023.7
20210515113554 51 102 0.0 1.0 0.00 0.00 0.00 68 1023.7
20210515113233 51 0 0.0 1.0 0.00 0.00 0.00 68 1023.7
20210515112555 51 143 0.0 1.0 0.00 0.00 0.00 68 1023.7
20210515112106 50 0 0.0 1.0 0.00 0.00 0.00 70 1023.7
20210515111634 49 122 0.0 1.0 0.00 0.00 0.00 70 1023.6
20210515111052 49 122 0.0 1.0 0.00 0.00 0.00 70 1023.6
20210515110551 48 153 0.0 1.0 0.00 0.00 0.00 69 1023.6
20210515110157 48 0 0.0 1.0 0.00 0.00 0.00 69 1023.5
20210515105549 49 0 0.0 0.0 0.00 0.00 0.00 70 1023.5
20210515105055 48 0 0.0 0.0 0.00 0.00 0.00 70 1023.5
20210515104653 47 0 0.0 0.0 0.00 0.00 0.00 70 1023.4
20210515104051 46 0 0.0 0.0 0.00 0.00 0.00 69 1023.4
20210515103605 45 0 0.0 0.0 0.00 0.00 0.00 68 1023.3
20210515103242 45 0 0.0 0.0 0.00 0.00 0.00 66 1023.2
20210515102551 44 0 0.0 0.0 0.00 0.00 0.00 61 1023.1
20210515102052 43 0 0.0 0.0 0.00 0.00 0.00 63 1023.1
20210515101625 42 0 0.0 0.0 0.00 0.00 0.00 61 1023.0
20210515101109 42 0 0.0 0.0 0.00 0.00 0.00 59 1023.0
20210515100552 41 0 0.0 0.0 0.00 0.00 0.00 57 1022.9
20210515100221 41 0 0.0 0.0 0.00 0.00 0.00 55 1022.8
20210515095549 40 0 0.0 0.0 0.00 0.00 0.00 52 1022.8
20210515095051 40 0 0.0 0.0 0.00 0.00 0.00 55 1022.8
20210515094659 40 0 0.0 1.0 0.00 0.00 0.00 56 1022.7
20210515094057 40 0 0.0 1.0 0.00 0.00 0.00 56 1022.7
20210515093550 40 246 0.0 1.0 0.00 0.00 0.00 55 1022.6
20210515093136 40 0 0.0 0.0 0.00 0.00 0.00 52 1022.5
20210515092613 40 0 0.0 0.0 0.00 0.00 0.00 55 1022.4
20210515092052 40 0 0.0 0.0 0.00 0.00 0.00 60 1022.4
20210515091606 40 0 0.0 0.0 0.00 0.00 0.00 61 1022.3
20210515091052 40 0 0.0 0.0 0.00 0.00 0.00 61 1022.3
20210515090552 41 0 0.0 0.0 0.00 0.00 0.00 62 1022.3
20210515090210 41 0 0.0 0.0 0.00 0.00 0.00 62 1022.2
20210515085553 41 0 0.0 0.0 0.00 0.00 0.00 66 1022.2
20210515085052 41 0 0.0 0.0 0.00 0.00 0.00 66 1022.2
20210515084643 41 0 0.0 0.0 0.00 0.00 0.00 65 1022.2
20210515084052 41 0 0.0 0.0 0.00 0.00 0.00 65 1022.2
20210515083551 41 0 0.0 0.0 0.00 0.00 0.00 66 1022.1
20210515083056 41 0 0.0 0.0 0.00 0.00 0.00 66 1022.1
20210515082553 41 0 0.0 0.0 0.00 0.00 0.00 66 1022.1
20210515082053 42 0 0.0 0.0 0.00 0.00 0.00 68 1022.2
20210515081634 42 0 0.0 0.0 0.00 0.00 0.00 69 1022.1
20210515081051 42 0 0.0 0.0 0.00 0.00 0.00 68 1022.1
20210515080553 42 0 0.0 0.0 0.00 0.00 0.00 68 1022.1
20210515080146 42 0 0.0 0.0 0.00 0.00 0.00 69 1022.1
20210515075553 43 0 0.0 0.0 0.00 0.00 0.00 69 1022.0
20210515075052 43 0 0.0 0.0 0.00 0.00 0.00 70 1022.0
20210515074623 43 0 0.0 0.0 0.00 0.00 0.00 70 1022.0
20210515074144 43 0 0.0 0.0 0.00 0.00 0.00 70 1022.1
20210515073552 44 0 0.0 0.0 0.00 0.00 0.00 70 1022.0
20210515073107 44 0 0.0 0.0 0.00 0.00 0.00 70 1022.0
20210515072554 44 0 0.0 0.0 0.00 0.00 0.00 70 1022.0
20210515072051 44 0 0.0 0.0 0.00 0.00 0.00 69 1022.0
20210515071627 44 0 0.0 0.0 0.00 0.00 0.00 69 1022.0
20210515071057 43 0 0.0 0.0 0.00 0.00 0.00 70 1022.0
20210515070558 43 0 0.0 0.0 0.00 0.00 0.00 71 1022.1
20210515070146 44 0 0.0 0.0 0.00 0.00 0.00 71 1022.0
20210515065551 44 0 0.0 0.0 0.00 0.00 0.00 71 1022.0
20210515065052 45 0 0.0 0.0 0.00 0.00 0.00 71 1022.0
20210515064831 45 0 0.0 0.0 0.00 0.00 0.00 71 1022.1
20210515064051 45 0 0.0 0.0 0.00 0.00 0.00 70 1022.0
20210515063552 45 0 0.0 0.0 0.00 0.00 0.00 71 1022.0
20210515063131 46 0 0.0 0.0 0.00 0.00 0.00 70 1022.0
20210515062549 46 0 0.0 1.0 0.00 0.00 0.00 70 1022.0
20210515062052 47 0 0.0 1.0 0.00 0.00 0.00 70 1022.0
20210515061646 47 0 0.0 1.0 0.00 0.00 0.00 69 1022.0
20210515061051 47 0 0.0 1.0 0.00 0.00 0.00 69 1021.9
20210515060623 47 0 0.0 1.0 0.00 0.00 0.00 69 1021.9
20210515060235 48 0 0.0 1.0 0.00 0.00 0.00 69 1021.9
20210515055558 47 0 0.0 0.0 0.00 0.00 0.00 69 1022.0
20210515055105 47 0 0.0 0.0 0.00 0.00 0.00 68 1021.9
20210515054654 48 0 0.0 1.0 0.00 0.00 0.00 68 1021.8
20210515054054 48 0 0.0 1.0 0.00 0.00 0.00 68 1021.8
20210515053552 48 246 0.0 1.0 0.00 0.00 0.00 68 1021.8
20210515053145 48 0 0.0 0.0 0.00 0.00 0.00 66 1021.8
20210515052553 49 0 0.0 0.0 0.00 0.00 0.00 66 1021.8
20210515052051 49 0 0.0 0.0 0.00 0.00 0.00 66 1021.8
20210515051642 49 0 0.0 0.0 0.00 0.00 0.00 66 1021.8
20210515051059 49 0 0.0 1.0 0.00 0.00 0.00 66 1021.8
20210515050552 49 0 0.0 1.0 0.00 0.00 0.00 65 1021.8
20210515050117 49 246 0.0 1.0 0.00 0.00 0.00 65 1021.7
20210515045552 49 0 0.0 0.0 0.00 0.00 0.00 65 1021.8
20210515045122 50 0 0.0 0.0 0.00 0.00 0.00 65 1021.7
20210515044621 50 0 0.0 0.0 0.00 0.00 0.00 65 1021.7
20210515044051 50 0 0.0 1.0 0.00 0.00 0.00 64 1021.7
20210515043609 50 0 0.0 1.0 0.00 0.00 0.00 65 1021.7
20210515043333 51 0 0.0 0.0 0.00 0.00 0.00 65 1021.7
20210515042552 51 0 0.0 0.0 0.00 0.00 0.00 62 1021.6
20210515042137 51 0 0.0 0.0 0.00 0.00 0.00 63 1021.7
20210515041653 51 0 0.0 1.0 0.00 0.00 0.00 61 1021.7
20210515041053 51 0 0.0 2.0 0.00 0.00 0.00 61 1021.5
20210515040552 51 246 1.0 2.0 0.00 0.00 0.00 62 1021.6
20210515040215 51 0 1.0 2.0 0.00 0.00 0.00 60 1021.6
20210515035625 52 103 1.0 1.0 0.00 0.00 0.00 61 1021.6
20210515035056 52 103 0.0 0.0 0.00 0.00 0.00 59 1021.4
20210515034706 53 0 0.0 1.0 0.00 0.00 0.00 57 1021.4
20210515034104 53 103 0.0 1.0 0.00 0.00 0.00 56 1021.4
20210515033559 53 0 0.0 0.0 0.00 0.00 0.00 56 1021.3
20210515033228 53 0 0.0 0.0 0.00 0.00 0.00 57 1021.2
20210515032552 53 0 0.0 0.0 0.00 0.00 0.00 56 1021.2
20210515032119 53 0 0.0 1.0 0.00 0.00 0.00 56 1021.1
20210515031624 53 0 0.0 2.0 0.00 0.00 0.00 56 1021.2
20210515031052 53 0 0.0 2.0 0.00 0.00 0.00 55 1021.2
20210515030615 54 105 1.0 1.0 0.00 0.00 0.00 55 1021.1
20210515030211 54 106 0.0 0.0 0.00 0.00 0.00 54 1021.2
20210515025553 54 0 0.0 0.0 0.00 0.00 0.00 55 1021.2
20210515025051 54 0 0.0 1.0 0.00 0.00 0.00 53 1021.1
20210515024649 54 0 0.0 1.0 0.00 0.00 0.00 52 1021.2
20210515024051 55 105 0.0 1.0 0.00 0.00 0.00 52 1021.1
20210515023552 55 0 0.0 1.0 0.00 0.00 0.00 51 1021.2
20210515023141 55 0 0.0 1.0 0.00 0.00 0.00 49 1021.1
20210515022553 56 107 0.0 1.0 0.00 0.00 0.00 48 1021.1
20210515022106 56 0 0.0 0.0 0.00 0.00 0.00 45 1021.1
20210515021629 56 0 0.0 1.0 0.00 0.00 0.00 44 1021.1
20210515021052 56 0 0.0 1.0 0.00 0.00 0.00 45 1021.0
20210515020557 55 0 0.0 1.0 0.00 0.00 0.00 46 1021.0
20210515020113 56 0 0.0 1.0 0.00 0.00 0.00 47 1021.0
20210515015551 56 231 0.0 1.0 0.00 0.00 0.00 46 1020.9
20210515015056 57 0 0.0 1.0 0.00 0.00 0.00 47 1020.9
20210515014741 57 0 0.0 1.0 0.00 0.00 0.00 43 1020.9
20210515014054 57 0 0.0 1.0 0.00 0.00 0.00 41 1020.9
20210515013551 58 0 0.0 1.0 0.00 0.00 0.00 40 1020.8
20210515013151 58 0 0.0 1.0 0.00 0.00 0.00 40 1020.8
20210515012558 58 0 0.0 1.0 0.00 0.00 0.00 40 1020.7
20210515012051 59 233 0.0 1.0 0.00 0.00 0.00 39 1020.7
20210515011617 59 267 0.0 1.0 0.00 0.00 0.00 39 1020.7
20210515011052 59 298 0.0 1.0 0.00 0.00 0.00 38 1020.6
20210515010551 59 0 0.0 1.0 0.00 0.00 0.00 38 1020.5
20210515010118 60 84 0.0 1.0 0.00 0.00 0.00 38 1020.4
20210515005552 60 0 0.0 1.0 0.00 0.00 0.00 38 1020.4
20210515005053 60 0 0.0 1.0 0.00 0.00 0.00 37 1020.4
20210515004613 61 0 0.0 1.0 0.00 0.00 0.00 36 1020.2
20210515004051 61 0 0.0 1.0 0.00 0.00 0.00 35 1020.1
20210515003605 61 263 0.0 1.0 0.00 0.00 0.00 35 1020.1
20210515003144 61 0 0.0 1.0 0.00 0.00 0.00 35 1020.1
20210515002607 62 0 0.0 2.0 0.00 0.00 0.00 34 1020.1
20210515002051 63 0 0.0 3.0 0.00 0.00 0.00 34 1020.0
20210515001624 63 0 0.0 3.0 0.00 0.00 0.00 33 1020.0
20210515001051 62 0 0.0 0.0 0.00 0.00 0.00 34 1019.9
20210515000552 63 0 0.0 3.0 0.00 0.00 0.00 34 1020.0
20210515000121 63 0 1.0 3.0 0.00 0.00 0.00 34 1019.9
20210514235552 64 0 0.0 1.0 0.00 0.00 0.00 33 1019.8
20210514235057 64 0 0.0 4.0 0.00 0.00 0.00 32 1019.7
20210514234615 65 257 1.0 4.0 0.00 0.00 0.00 32 1019.6
20210514234101 65 294 0.0 3.0 0.00 0.00 0.00 33 1019.6
20210514233551 65 0 0.0 1.0 0.00 0.00 0.00 32 1019.5
20210514233120 66 207 0.0 1.0 0.00 0.00 0.00 31 1019.5
20210514232556 66 0 0.0 1.0 0.00 0.00 0.00 31 1019.4
20210514232052 67 0 0.0 2.0 0.00 0.00 0.00 31 1019.4
20210514231712 68 249 1.0 2.0 0.00 0.00 0.00 31 1019.4
20210514231051 68 251 0.0 3.0 0.00 0.00 0.00 29 1019.3
20210514230604 69 266 1.0 3.0 0.00 0.00 0.00 28 1019.3
20210514230144 69 231 1.0 3.0 0.00 0.00 0.00 28 1019.3
20210514225557 69 212 1.0 4.0 0.00 0.00 0.00 28 1019.2
20210514225053 70 285 1.0 8.0 0.00 0.00 0.00 27 1019.2
20210514224634 70 268 2.0 8.0 0.00 0.00 0.00 27 1019.2
20210514224056 71 246 2.0 10.0 0.00 0.00 0.00 27 1019.1
20210514223552 71 283 3.0 10.0 0.00 0.00 0.00 26 1019.1
20210514223122 71 174 3.0 9.0 0.00 0.00 0.00 26 1019.0
20210514222551 71 259 2.0 9.0 0.00 0.00 0.00 27 1019.1
20210514222057 72 268 3.0 13.0 0.00 0.00 0.00 24 1019.1
20210514221649 73 252 5.0 13.0 0.00 0.00 0.00 24 1018.9
20210514221110 73 226 2.0 5.0 0.00 0.00 0.00 25 1018.9
20210514220559 73 264 2.0 9.0 0.00 0.00 0.00 25 1019.1
20210514220148 72 301 4.0 11.0 0.00 0.00 0.00 24 1019.1
20210514215551 72 294 4.0 11.0 0.00 0.00 0.00 26 1019.1
20210514215107 71 221 2.0 5.0 0.00 0.00 0.00 28 1019.1
20210514214650 71 258 2.0 5.0 0.00 0.00 0.00 27 1019.2
20210514214052 70 222 1.0 5.0 0.00 0.00 0.00 30 1019.1
20210514213552 69 250 1.0 4.0 0.00 0.00 0.00 28 1019.2
20210514213208 70 269 1.0 6.0 0.00 0.00 0.00 29 1019.2
20210514212556 70 219 2.0 9.0 0.00 0.00 0.00 28 1019.3
20210514212053 71 274 3.0 9.0 0.00 0.00 0.00 28 1019.3
20210514211655 70 236 3.0 9.0 0.00 0.00 0.00 27 1019.2
20210514211051 70 256 2.0 9.0 0.00 0.00 0.00 28 1019.2
20210514210555 71 294 2.0 8.0 0.00 0.00 0.00 28 1019.2
20210514210114 72 222 3.0 7.0 0.00 0.00 0.00 27 1019.1
20210514205551 73 280 2.0 7.0 0.00 0.00 0.00 28 1019.2
20210514205050 73 262 4.0 11.0 0.00 0.00 0.00 27 1019.1
20210514204701 72 156 3.0 11.0 0.00 0.00 0.00 27 1019.2
20210514204104 72 89 3.0 11.0 0.00 0.00 0.00 26 1019.3
20210514203551 72 198 3.0 10.0 0.00 0.00 0.00 27 1019.4
20210514203125 72 271 3.0 10.0 0.00 0.00 0.00 27 1019.3
20210514202621 72 304 3.0 12.0 0.00 0.00 0.00 30 1019.2
20210514202123 72 229 5.0 12.0 0.00 0.00 0.00 26 1019.3
20210514201637 73 260 5.0 11.0 0.00 0.00 0.00 26 1019.2
20210514201052 73 244 4.0 9.0 0.00 0.00 0.00 26 1019.3
20210514200556 73 219 5.0 9.0 0.00 0.00 0.00 27 1019.4
20210514200153 73 191 2.0 12.0 0.00 0.00 0.00 26 1019.4
20210514195551 71 280 3.0 12.0 0.00 0.00 0.00 26 1019.5
20210514195052 71 193 4.0 8.0 0.00 0.00 0.00 27 1019.5
20210514194734 70 250 0.0 8.0 0.00 0.00 0.00 27 1019.6
20210514194105 70 335 3.0 11.0 0.00 0.00 0.00 24 1019.6
20210514193553 70 195 4.0 11.0 0.00 0.00 0.00 28 1019.6
20210514193123 71 89 3.0 9.0 0.00 0.00 0.00 26 1019.7
20210514192608 71 239 4.0 9.0 0.00 0.00 0.00 26 1019.7
20210514192052 70 310 4.0 8.0 0.00 0.00 0.00 28 1019.6
20210514191626 70 250 4.0 12.0 0.00 0.00 0.00 26 1019.8
20210514191051 71 278 5.0 12.0 0.00 0.00 0.00 28 1019.8
20210514190557 70 263 3.0 11.0 0.00 0.00 0.00 27 1019.9
20210514190129 70 273 5.0 11.0 0.00 0.00 0.00 27 1019.8
20210514185606 70 276 3.0 8.0 0.00 0.00 0.00 24 1019.7
20210514185053 71 260 3.0 9.0 0.00 0.00 0.00 25 1019.8
20210514184613 72 240 4.0 9.0 0.00 0.00 0.00 24 1019.9
20210514184053 73 46 2.0 8.0 0.00 0.00 0.00 27 1019.7
20210514183552 73 291 3.0 10.0 0.00 0.00 0.00 26 1019.7
20210514183119 72 298 3.0 10.0 0.00 0.00 0.00 26 1019.8
20210514182555 72 264 4.0 10.0 0.00 0.00 0.00 24 1019.8
20210514182108 72 256 2.0 10.0 0.00 0.00 0.00 28 1020.0
20210514181603 72 312 3.0 9.0 0.00 0.00 0.00 25 1020.1
20210514181055 73 283 3.0 8.0 0.00 0.00 0.00 24 1020.0
20210514180551 72 290 1.0 11.0 0.00 0.00 0.00 25 1020.0
20210514180241 72 316 4.0 11.0 0.00 0.00 0.00 25 1020.1
20210514175554 74 262 4.0 10.0 0.00 0.00 0.00 25 1020.1
20210514175051 74 117 2.0 10.0 0.00 0.00 0.00 25 1020.1